Location: Allison Elementary School
(34.0784°N, 117.7317°W)
Time: 07:49:18
(UTC+00:00)

Cosmos 2082 Rocket - Pass Details

Date: 15 November 2019
Orbit: 833 x 853 km, 71.0° (Epoch: 14 December)

Event Time Altitude Azimuth Distance (km) Brightness Sun altitude
Exits shadow 11:39:30 26° 27° (NNE) 1,632 3.8 -33.9°
Drops below altitude 10° 11:41:51 10° 24° (NNE) 2,486 4.9 -33.5°
Sets 11:44:19 0° 23° (NNE) 3,424 5.6 -32.9°
